date,batt_volt,AirTemp_C,Solar_kW,RH,Manual_BP,StationID,WS_ms,PTemp,WS_15min_max,Prog_Sig,Solar_Raw,Bar_mbar,Solar_MJ,Max_WS_2min,Pressure_Raw,Rain_mm,WD_15min_ave,Max_AirTemp_1min,WindDir,WS_15min_med,WS_15min_ave,Elevation_Correction
2022-07-01T00:11:05Z,13.19024,14.26474,0.00289223,90.64446,0,1156,2.2932,17.16105,3.2928,43690,0.2024561,1015.965,1.446115e-05,2.822,1014.165,0,185.172456451,14.26,190.6917,2.156,2.14841290323,1.80078
2022-07-01T00:26:01Z,13.21282,13.79396,0.0004820386,91.5649,0,1156,1.6464,16.43808,3.1556,43690,0.0337427,1015.965,2.410193e-06,2.528,1014.165,0,183.956933038,13.93,192.9648,2.058,2.09454823529,1.80078
2022-07-01T00:41:06Z,13.22386,13.59077,0.0,92.4119,0,1156,1.666,15.77386,2.744,43690,0.0,1015.965,0.0,2.372,1014.165,0,176.475453471,13.69,158.5714,1.8816,1.84216941059,1.80078
2022-07-01T00:56:04Z,13.2349,13.35601,0.0,93.22904,0,1156,2.4696,15.11642,2.9596,43690,0.0,1015.965,0.0,2.705,1014.165,0,173.660176116,13.42,169.8832,1.764,1.80677411765,1.80078
2022-07-01T01:11:07Z,13.24927,13.09565,0.0,93.7899,0,1156,1.5876,14.6352,3.1948,43690,0.0,1017.46,0.0,2.058,1015.66,0,178.909382172,13.16,172.4914,1.9306,1.94824,1.80078
2022-07-01T01:26:09Z,13.26143,13.20217,0.0,94.13734,0,1156,1.4896,14.20594,2.3128,43690,0.0,1017.46,0.0,1.725,1015.66,0,199.00191507,13.17,203.0388,1.0976,1.1810139407,1.80078
2022-07-01T01:41:08Z,13.26698,13.10064,0.0,94.47644,0,1156,1.568,13.84898,2.156,43690,0.0,1017.46,0.0,1.411,1015.66,0,194.776484367,13.13,201.6198,1.3132,1.3075023186,1.80078
2022-07-01T01:56:08Z,13.2725,12.9651,0.0,94.47644,0,1156,0.8231999,13.61176,1.7248,43690,0.0,1017.46,0.0,1.372,1015.66,0,192.646200301,13.1,202.5581,0.882,0.817958129651,1.80078
2022-07-01T02:11:07Z,13.27802,13.20277,0.0,94.74838,0,1156,0.686,13.42424,2.058,43690,0.0,1016.487,0.0,1.352,1014.687,0,69.3604881901,13.2,28.19814,0.7644,0.864129403529,1.80078
2022-07-01T02:26:11Z,13.27373,13.17123,0.0,94.5831,0,1156,1.5876,13.32936,2.2148,43690,0.0,1016.487,0.0,1.548,1014.687,0,290.066639216,13.27,32.04913,1.127,1.11412324651,1.80078
2022-07-01T02:41:10Z,13.2741,13.37403,0.0,94.31106,0,1156,0.9604,13.3045,2.6264,43690,0.0,1016.487,0.0,1.823,1014.687,0,33.7560446909,13.54,60.39229,1.3328,1.33257075322,1.80078
2022-07-01T02:56:13Z,13.27311,13.44425,0.0,93.87481,0,1156,1.2152,13.3045,2.1756,43690,0.0,1016.487,0.0,2.058,1014.687,0,34.2652528892,13.58,59.07165,1.1172,1.12763039942,1.80078
2022-07-01T03:11:12Z,13.2742,13.54561,0.0,93.53536,0,1156,2.6656,13.28191,3.1164,43690,0.0,1016.533,0.0,2.528,1014.732,0,235.536941578,13.68,219.0571,1.7052,1.73616567929,1.80078
2022-07-01T03:26:11Z,13.2794,13.3764,0.0,93.70524,0,1156,1.5092,13.25932,3.9004,43690,0.0,1016.533,0.0,2.274,1014.732,0,208.279438997,13.48,195.5738,1.8228,1.84367573728,1.80078
2022-07-01T03:41:09Z,13.27399,13.21072,0.0,94.18637,0,1156,2.1364,13.18702,3.8808,43690,0.0,1016.533,0.0,3.43,1014.732,0,202.220773733,13.28,188.3927,2.1756,2.12356666488,1.80078
2022-07-01T03:56:12Z,13.28003,13.14339,0.0,94.56,0,1156,1.9404,13.14183,3.9396,43690,0.0,1016.533,0.0,2.352,1014.732,0,195.136438666,13.18,203.6748,2.0188,2.09035739467,1.80078
2022-07-01T04:11:13Z,13.28026,13.14343,0.0,94.8312,0,1156,0.4312,13.04695,3.1164,43690,0.0,1016.574,0.0,1.744,1014.773,0,212.010017954,13.25,231.6128,1.4112,1.46930413669,1.80078
2022-07-01T04:26:14Z,13.28556,13.31298,0.0,94.59412,0,1156,0.588,13.00177,1.9208,43690,0.0,1016.574,0.0,1.548,1014.773,0,52.3734938444,13.65,69.95321,0.588,0.66848756568,1.80078
2022-07-01T04:41:14Z,13.28578,12.56735,0.0,94.83137,0,1156,1.5876,12.95432,1.7836,43690,0.0,1016.574,0.0,1.823,1014.773,0,87.5770232072,12.47,76.73918,0.4116,0.674982247929,1.80078
2022-07-01T04:56:15Z,13.28576,12.22815,0.0,95.10201,0,1156,0.1568,12.7668,1.5484,43690,0.0,1016.574,0.0,0.039,1014.773,0,105.042516972,12.36,50.70197,0.0392,0.288665086391,1.80078
2022-07-01T05:11:15Z,13.29682,12.36257,0.0,95.64218,0,1156,0.0392,12.62673,1.1564,43690,0.0,1016.004,0.0,0.039,1014.203,0,87.4143571678,12.5,101.883,0.4116,0.460194077515,1.80078
2022-07-01T05:26:15Z,13.29737,12.83728,0.0,96.0154,0,1156,1.0388,12.5341,1.2544,43690,0.0,1016.004,0.0,0.823,1014.203,0,220.6933462,12.9,239.0675,0.0392,0.189041418343,1.80078
2022-07-01T05:41:15Z,13.2914,13.55024,0.0,96.11928,0,1156,0.9604,12.58154,1.7444,43690,0.0,1016.004,0.0,1.235,1014.203,0,212.323484788,13.72,203.6031,0.8035999,0.822388155621,1.80078
2022-07-01T05:56:13Z,13.29138,13.51765,0.0,96.18942,0,1156,1.1956,12.58154,1.7444,43690,0.0,1016.004,0.0,1.705,1014.203,0,192.972054515,13.62,190.5892,0.9211999,0.935057305732,1.80078
2022-07-01T06:11:15Z,13.28562,13.85541,0.0,95.98396,0,1156,2.1364,12.69677,2.8224,43690,0.0,1016.897,0.0,2.528,1015.096,0,221.567169918,13.92,250.8649,1.7444,1.74277707006,1.80078
2022-07-01T06:26:16Z,13.28026,13.48243,0.0,95.67863,0,1156,2.6264,12.90687,3.1752,43690,0.0,1016.897,0.0,2.607,1015.096,0,207.935567465,13.65,201.2207,2.0384,1.96869822189,1.80078
2022-07-01T06:41:14Z,13.28578,13.2791,0.0,95.71257,0,1156,1.96,12.95432,3.1752,43690,0.0,1016.897,0.0,2.47,1015.096,0,197.767313307,13.45,195.2048,1.8816,1.96244999937,1.80078
2022-07-01T06:56:17Z,13.28578,13.10963,0.0,95.84814,0,1156,1.6268,12.85943,2.45,43690,0.0,1016.897,0.0,1.627,1015.096,0,209.169405557,13.11,212.9639,1.4504,1.47359526154,1.80078
2022-07-01T07:11:17Z,13.28578,12.77064,0.0,96.01748,0,1156,1.0976,12.7668,2.2148,43690,0.0,1016.412,0.0,1.666,1014.611,0,209.673851347,12.94,221.9875,1.666,1.64210887456,1.80078
2022-07-01T07:26:14Z,13.2913,12.77043,0.0,96.05098,0,1156,0.9211999,12.65158,1.7052,43690,0.0,1016.412,0.0,1.548,1014.611,0,216.712859181,12.91,211.2301,1.3132,1.24844999405,1.80078
2022-07-01T07:41:17Z,13.29679,12.63609,0.0,96.1888,0,1156,1.2348,12.48665,1.3916,43690,0.0,1016.412,0.0,1.117,1014.611,0,212.570480017,12.8,223.0024,0.9015999,0.90020825858,1.80078
2022-07-01T07:56:17Z,13.30401,12.81133,0.0,96.30102,0,1156,1.1956,12.3014,1.8228,43690,0.0,1016.412,0.0,1.823,1014.611,0,195.045605567,12.98,195.8795,1.1368,1.14294673077,1.80078
2022-07-01T08:11:15Z,13.29901,13.22018,0.000482364,96.44038,0,1156,1.7836,12.25621,2.5088,43690,0.03376548,1017.125,2.41182e-06,2.332,1015.324,0,217.424298191,13.19,37.11243,1.568,1.54294910533,1.80078
2022-07-01T08:26:16Z,13.29893,13.35358,0.003376549,96.47031,0,1156,2.45,12.41887,3.136,43690,0.2363584,1017.125,1.688275e-05,2.43,1015.324,0,217.718402475,13.35,190.1994,1.862,1.86814674497,1.80078
2022-07-01T08:41:17Z,13.2917,13.41766,0.007717479,96.53141,0,1156,2.2932,12.55669,3.3712,43690,0.5402235,1017.125,3.858739e-05,2.411,1015.324,0,196.186576004,13.55,202.2909,1.9992,2.02645443787,1.80078
2022-07-01T08:56:18Z,13.29058,13.21161,0.01446871,96.66212,0,1156,2.0188,12.62673,3.0772,43690,1.01281,1017.125,7.234354e-05,2.548,1015.324,0,189.495379056,13.25,217.1762,2.1168,2.17177278107,1.80078
2022-07-01T09:11:17Z,13.29127,13.21006,0.04774871,96.72707,0,1156,1.7248,12.67418,3.1948,43690,3.34241,1017.308,0.0002387435,2.842,1015.507,0,188.252871709,13.28,178.2357,2.3128,2.2577112426,1.80078
2022-07-01T09:26:18Z,13.28564,13.44853,0.08197702,96.7632,0,1156,1.1368,12.90687,2.2932,43690,5.738391,1017.308,0.0004098851,1.725,1015.507,0,181.402468654,13.45,173.5474,1.4308,1.41363549882,1.80078
2022-07-01T09:41:18Z,13.26319,14.05845,0.1191043,96.62735,0,1156,0.9604,13.63662,1.7052,43690,8.337302,1017.308,0.0005955216,1.705,1015.507,0,181.633146974,14.06,166.4481,1.0976,1.11476448225,1.80078
2022-07-01T09:56:17Z,13.25055,14.25304,0.1297122,96.34066,0,1156,1.0584,14.32342,1.8032,43690,9.079855,1017.308,0.000648561,1.352,1015.507,0,182.823282291,14.25,184.1293,0.9995999,0.989973952071,1.80078
2022-07-01T10:11:17Z,13.23939,14.42225,0.2092755,96.06917,0,1156,1.7444,14.82724,2.5872,43690,14.64928,1017.383,0.001046377,2.332,1015.582,0,180.068275612,14.39,196.0861,1.5092,1.52636449349,1.80078
2022-07-01T10:26:19Z,13.2142,15.01911,0.269503,94.99605,0,1156,1.862,15.79872,3.038,43690,18.86521,1017.383,0.001347515,3.038,1015.582,0,176.015586579,14.78,161.5461,2.0188,1.98713846154,1.80078
2022-07-01T10:41:19Z,13.19094,15.28497,0.3200774,92.75138,0,1156,2.5284,16.98482,3.1556,43690,22.40542,1017.383,0.001600387,2.489,1015.582,0,174.612073492,15.29,180.0508,1.9992,1.92381538343,1.80078
2022-07-01T10:56:19Z,13.16835,15.75788,0.3629752,89.53104,0,1156,1.9404,18.04667,3.2536,43690,25.40827,1017.383,0.001814876,2.881,1015.582,0,174.311606192,15.66,165.5918,1.96,1.94515502899,1.80078
2022-07-01T11:11:17Z,13.14838,16.01293,0.4207805,86.49154,0,1156,2.1756,19.04978,3.7044,43690,29.45464,1017.505,0.002103903,2.979,1015.704,0,168.292905305,15.95,184.8762,2.4108,2.39282366805,1.80078
2022-07-01T11:26:20Z,13.13117,16.21409,0.4978399,84.79522,0,1156,3.528,20.1297,3.6848,43690,34.84879,1017.505,0.002489199,3.489,1015.704,0,167.697853106,16.32,163.4949,2.5284,2.55333491124,1.80078
2022-07-01T11:41:19Z,13.10637,16.60821,0.4529652,83.45648,0,1156,2.6068,21.25933,3.6064,43690,31.70756,1017.505,0.002264826,3.116,1015.704,0,165.017365617,16.71,165.3105,2.548,2.42692071006,1.80078
2022-07-01T11:56:21Z,13.08816,17.17691,0.6899307,81.41531,0,1156,1.9404,22.19465,2.8616,43690,48.29515,1017.505,0.003449654,2.313,1015.704,0,156.759047512,17.21,143.6109,2.0776,2.05243313609,1.80078
2022-07-01T12:11:20Z,13.07157,17.44754,0.6787405,81.34734,0,1156,3.332,23.35139,3.528,43690,47.51183,1017.428,0.003393702,3.489,1015.627,0,158.197958578,17.45,152.936,2.5872,2.61688994083,1.80078
2022-07-01T12:26:21Z,13.06402,17.50517,0.5241046,80.72386,0,1156,1.5092,23.78291,3.8416,43690,36.68732,1017.428,0.002620523,2.862,1015.627,0,161.127395559,17.47,165.9581,2.6068,2.62709585799,1.80078
2022-07-01T12:41:21Z,13.05834,17.5055,0.3555048,79.74276,0,1156,1.078,24.21894,3.6652,43690,24.88533,1017.428,0.001777524,3.214,1015.627,0,160.357008543,17.61,170.4529,2.4696,2.45382721893,1.80078
2022-07-01T12:56:21Z,13.0744,16.92911,0.3555048,82.85522,0,1156,2.8028,23.75354,3.5672,43690,24.88533,1017.428,0.001777524,3.038,1015.627,0,163.056169123,16.93,160.2368,2.5872,2.59369467456,1.80078
2022-07-01T13:11:21Z,13.08082,16.69217,0.4075299,81.83981,0,1156,2.7832,23.20906,3.8612,43690,28.52709,1017.492,0.002037649,3.861,1015.692,0,169.31806547,17.0,165.5235,2.6656,2.67186272189,1.80078
2022-07-01T13:26:20Z,13.09287,16.76651,0.8849082,83.03414,0,1156,2.3128,22.81143,3.92,43690,61.94357,1017.492,0.004424541,3.43,1015.692,0,165.443906106,16.63,163.2117,2.9204,2.84188402367,1.80078
2022-07-01T13:41:20Z,13.0709,18.15477,0.5029092,78.39724,0,1156,2.2932,23.46661,3.3908,43690,35.20364,1017.492,0.002514546,3.254,1015.692,0,167.344091573,18.12,157.8533,2.695,2.64448333333,1.80078
2022-07-01T13:56:20Z,13.05287,17.60402,0.4990555,78.9263,0,1156,2.1168,24.51039,3.9396,43690,34.93388,1017.492,0.002495277,3.94,1015.692,0,165.629546991,17.88,156.3143,2.7244,2.76826666667,1.80078
2022-07-01T14:11:24Z,13.03968,18.51123,0.495163,75.19489,0,1156,2.5676,25.13168,3.8416,43690,34.66141,1016.388,0.002475815,3.724,1014.588,0,164.662088113,18.88,182.3181,2.646,2.66200473373,1.80078
2022-07-01T14:26:23Z,13.04511,17.25891,0.2769393,78.61256,0,1156,2.548,25.10231,4.1552,43690,19.38575,1016.388,0.001384697,3.077,1014.588,0,156.710089165,17.5,156.8248,2.8812,2.97525680473,1.80078
2022-07-01T14:41:23Z,13.06715,17.15738,0.2528802,80.40613,0,1156,1.4308,24.3048,2.8812,43690,17.70162,1016.388,0.001264401,1.823,1014.588,0,153.195160739,17.26,162.0627,1.9796,1.91198579763,1.80078
2022-07-01T14:56:22Z,13.0799,16.92657,0.2365209,79.46706,0,1156,1.6856,23.46661,2.842,43690,16.55646,1016.388,0.001182604,1.999,1014.588,0,154.023593076,17.16,153.5494,1.3916,1.38707691598,1.80078
2022-07-01T15:11:21Z,13.08661,17.6787,0.5896172,78.29274,0,1156,2.5872,22.86791,2.6852,43690,41.27321,1016.271,0.002948086,2.685,1014.47,0,156.801095317,17.68,152.1516,1.5484,1.60406863432,1.80078
2022-07-01T15:26:21Z,13.07686,19.0718,0.6069589,75.42234,0,1156,1.4896,23.17969,3.1164,43690,42.48712,1016.271,0.003034795,2.568,1014.47,0,159.157085427,19.07,145.5797,2.352,2.32590532544,1.80078
2022-07-01T15:41:23Z,13.04703,21.1266,0.9576464,67.6928,0,1156,2.4696,24.33416,2.8812,43690,67.03525,1016.271,0.004788232,2.685,1014.47,0,156.324740087,21.3,148.0066,2.1756,2.15066508876,1.80078
2022-07-01T15:56:25Z,13.01765,20.10198,0.5331906,71.74335,0,1156,2.3716,25.46153,3.0968,43690,37.32334,1016.271,0.002665953,2.803,1014.47,0,151.668867037,20.17,162.5204,2.2736,2.22315029586,1.80078
2022-07-01T16:11:23Z,13.03409,18.4083,0.3616831,75.86988,0,1156,2.5676,25.6129,3.0968,43690,25.31782,1016.279,0.001808416,3.058,1014.478,0,159.177898124,18.44,167.4413,2.6264,2.5931147929,1.80078
2022-07-01T16:26:25Z,13.03409,21.15017,0.9955028,70.25333,0,1156,2.3324,25.43216,3.0968,43690,69.68519,1016.279,0.004977514,2.332,1014.478,0,157.511921901,21.18,147.5012,1.9796,1.96637869704,1.80078
2022-07-01T16:41:27Z,13.02199,20.6375,0.757015,69.0293,0,1156,2.3324,25.91564,3.1556,43690,52.99106,1016.279,0.003785075,2.783,1014.478,0,150.858916,20.74,153.0867,2.548,2.48746035503,1.80078
2022-07-01T16:56:26Z,13.01901,20.86015,0.9838098,71.78724,0,1156,0.9408,26.15964,2.8812,43690,68.86668,1016.279,0.004919049,1.666,1014.478,0,150.853793284,21.0,148.5833,1.8032,1.77571360769,1.80078
2022-07-01T17:11:26Z,13.00768,21.63749,0.8220081,66.71193,0,1156,1.9012,26.65216,2.156,43690,57.54056,1014.889,0.00411004,2.176,1013.088,0,144.490330603,21.84,149.9266,1.568,1.56788402308,1.80078
2022-07-01T17:26:26Z,13.00213,21.84034,0.8980932,64.885,0,1156,1.1368,27.27797,2.1756,43690,62.86652,1014.889,0.004490466,1.862,1013.088,0,144.937631867,22.18,133.9537,1.6856,1.68014911243,1.80078
2022-07-01T17:41:27Z,12.99662,22.4831,0.9000194,66.33966,0,1156,1.4112,27.81567,2.1952,43690,63.00136,1014.889,0.004500097,2.195,1013.088,0,143.65642525,22.62,146.1073,1.5484,1.50734437692,1.80078
2022-07-01T17:56:26Z,12.9856,23.6333,0.8772832,59.13398,0,1156,2.4304,28.33078,2.7048,43690,61.40982,1014.889,0.004386416,2.646,1013.088,0,157.773081455,23.84,170.5345,1.7248,1.76237633077,1.80078
2022-07-01T18:11:27Z,12.97896,23.96909,0.7620918,58.65806,0,1156,1.6268,28.75552,3.6456,43690,53.34643,1015.536,0.003810459,2.803,1013.735,0,155.229911724,24.14,162.3857,2.254,2.25434792899,1.80078
2022-07-01T18:26:27Z,12.97227,24.06313,0.8756699,60.9513,0,1156,2.352,29.01759,2.8224,43690,61.2969,1015.536,0.00437835,2.783,1013.735,0,156.790090847,24.06,146.0846,1.862,1.8497065071,1.80078
2022-07-01T18:41:28Z,12.97112,22.77047,0.7630526,59.08406,0,1156,2.5872,29.38359,3.2928,43690,53.41368,1015.536,0.003815263,3.058,1013.735,0,151.417583452,23.01,146.6678,2.3912,2.2018106497,1.80078
2022-07-01T18:56:28Z,12.97022,22.83496,0.7149114,65.23608,0,1156,1.96,29.51689,3.0968,43690,50.0438,1015.536,0.003574557,2.078,1013.735,0,147.239972566,22.9,136.2636,1.7248,1.76666745266,1.80078
2022-07-01T19:11:27Z,12.9702,22.73378,0.7630412,63.71452,0,1156,2.3324,29.44911,2.8812,43690,53.41288,1014.472,0.003815206,2.195,1012.672,0,153.898133793,22.73,150.0467,1.568,1.60534437278,1.80078
2022-07-01T19:26:30Z,12.97106,22.33001,0.8439406,65.47526,0,1156,3.038,29.28193,4.018,43690,59.07584,1014.472,0.004219703,3.998,1012.672,0,153.033395649,22.36,151.7085,2.7048,2.73599763314,1.80078
2022-07-01T19:41:29Z,12.9722,22.70837,0.7071906,59.5628,0,1156,2.5088,29.117,4.1944,43690,49.50334,1014.472,0.003535953,3.998,1012.672,0,153.827582362,22.91,136.0904,3.2144,3.22796923077,1.80078
2022-07-01T19:56:28Z,12.97273,22.10228,0.6585474,64.47002,0,1156,3.5084,29.01759,4.5668,43690,46.09831,1014.472,0.003292737,4.39,1012.672,0,154.347183366,22.14,153.0994,3.136,3.16360236686,1.80078
2022-07-01T20:11:28Z,12.97971,21.60007,0.6162654,62.07366,0,1156,2.1364,28.75552,3.4692,43690,43.13858,1013.994,0.003081327,2.195,1012.193,0,150.353830109,21.63,149.5336,2.254,2.27290414083,1.80078
2022-07-01T20:26:28Z,12.98559,20.72386,0.5464618,64.58041,0,1156,1.372,28.46182,2.4696,43690,38.25232,1013.994,0.002732309,2.352,1012.193,0,148.37360235,20.76,155.6185,1.8228,1.83173017692,1.80078
2022-07-01T20:41:29Z,12.9911,21.9418,0.5330648,57.67928,0,1156,1.5484,28.17038,2.2344,43690,37.31453,1013.994,0.002665324,2.234,1012.193,0,144.648757269,21.91,147.8846,1.4504,1.40215384379,1.80078
2022-07-01T20:56:29Z,12.99661,19.94586,0.486848,59.43842,0,1156,1.568,27.97608,2.3324,43690,34.07936,1013.994,0.00243424,2.215,1012.193,0,138.005173399,19.98,148.9174,1.6856,1.68896331243,1.80078
2022-07-01T21:11:28Z,13.00763,20.41947,0.4627706,58.55885,0,1156,1.5484,27.43612,2.548,43690,32.39394,1013.912,0.002313853,1.627,1012.111,0,139.945840815,20.45,138.4452,1.5092,1.51573333086,1.80078
2022-07-01T21:42:07Z,13.0188,20.45399,0.3544216,62.21314,0,1156,0.9604,26.31327,2.4304,43690,24.80951,1013.912,0.001772108,1.372,1012.111,0,146.276444807,20.42,154.9239,1.3622,1.38644871346,1.80078
2022-07-01T21:57:03Z,13.02471,20.6632,0.06356474,60.59554,0,1156,0.5684,26.06701,1.5092,43690,4.449532,1013.912,0.0003178237,1.372,1012.111,0,142.707206352,20.53,182.6128,0.6076,0.635947095041,1.80078
2022-07-01T22:12:05Z,13.02728,21.07682,0.1979339,58.47133,0,1156,1.176,25.88627,1.4504,43690,13.85537,1013.267,0.0009896692,1.333,1011.467,0,147.497837995,21.18,138.7185,0.882,0.87283785503,1.80078
2022-07-01T22:27:05Z,13.03403,20.77806,0.107402,61.89481,0,1156,0.3332,25.5519,1.2936,43690,7.518138,1013.267,0.0005370098,1.019,1011.467,0,150.220379703,20.81,172.4896,0.7448,0.747351466272,1.80078
2022-07-01T22:42:06Z,13.05061,19.69541,0.08284073,61.86123,0,1156,0.686,24.74761,1.4112,43690,5.79885,1013.267,0.0004142036,0.9210001,1011.467,0,46.1981565321,19.9,17.756,0.6468,0.622908866864,1.80078
2022-07-01T22:57:06Z,13.06163,21.08373,0.1729331,61.9636,0,1156,0.0392,23.89813,1.7052,43690,12.10532,1013.267,0.0008646657,0.7640001,1011.467,0,188.811023853,21.02,146.3749,0.588,0.63613016568,1.80078
2022-07-01T23:12:07Z,13.06377,20.787,0.08526328,62.47929,0,1156,0.3332,23.49598,0.9408,43690,5.96843,1011.614,0.0004263164,0.627,1009.813,0,201.726742434,20.92,245.2072,0.4508,0.421457982249,1.80078
2022-07-01T23:27:07Z,13.07444,20.24763,0.02938452,64.71544,0,1156,0.2548,23.03962,0.882,43690,2.056916,1011.614,0.0001469226,0.804,1009.813,0,193.287079105,20.58,180.5716,0.4116,0.430620116568,1.80078
2022-07-01T23:42:08Z,13.08797,18.76701,0.01252455,72.64631,0,1156,0.0392,22.30761,0.9799999,43690,0.8767186,1011.614,6.262275e-05,0.6860001,1009.813,0,95.398704326,18.9,32.20676,0.2156,0.26976094497,1.80078
2022-07-01T23:57:06Z,13.11016,17.81989,0.005299326,75.52468,0,1156,0.6272,21.36777,0.8428,43690,0.3709528,1011.614,2.649663e-05,0.549,1009.813,0,68.5388043416,18.02,54.68007,0.4508,0.377039050296,1.80078
2022-07-02T00:12:08Z,13.1267,17.27825,0.001445612,78.80838,0,1156,0.7252,20.44825,0.9015999,43690,0.1011928,1011.171,7.228058e-06,0.51,1009.37,0.0,69.9067812731,17.35,74.34086,0.6468,0.652946737278,1.80078
2022-07-02T00:27:05Z,13.14107,16.78616,0.0004818759,81.23434,0,1156,0.5292,19.67785,0.882,43690,0.03373132,1011.171,2.40938e-06,0.647,1009.37,0.0,76.474797761,16.92,93.57086,0.6076,0.553583325595,1.80078
2022-07-02T00:42:08Z,13.15319,16.45099,0.0,81.06999,0,1156,1.666,19.02493,1.7052,43690,0.0,1011.171,0.0,1.411,1009.37,0.0,84.5359328817,16.55,80.08828,0.8035999,0.727983417751,1.80078
2022-07-02T00:57:08Z,13.15873,15.90925,0.0,83.44058,0,1156,2.3324,18.53241,2.744,43690,0.0,1011.171,0.0,2.45,1009.37,0.0,78.3992210262,16.11,70.63935,1.9502,1.8472999994,1.80078
2022-07-02T01:12:09Z,13.16424,15.63834,0.0,84.79513,0,1156,1.764,18.09637,2.5088,43690,0.0,1012.4,0.0,2.038,1010.599,0.0,79.5582365708,15.71,84.29597,1.8424,1.79380591598,1.80078
2022-07-02T01:27:09Z,13.17717,15.7813,0.0,83.62114,0,1156,0.3724,17.76652,2.4108,43690,0.0,1012.4,0.0,1.176,1010.599,0.0,78.540695114,15.85,76.75669,1.3328,1.38603313314,1.80078
2022-07-02T01:42:07Z,13.17793,15.85566,0.0,84.30851,0,1156,0.882,17.51348,1.2936,43690,0.0,1012.4,0.0,0.823,1010.599,0.0,169.497927472,15.96,169.5485,0.0392,0.404016657143,1.80078
2022-07-02T01:57:11Z,13.19048,15.79227,0.0,86.24598,0,1156,0.784,17.28756,0.8231999,43690,0.0,1012.4,0.0,0.706,1010.599,0.0,142.108128909,15.79,49.59381,0.5096,0.396407099408,1.80078
2022-07-02T02:12:10Z,13.19076,16.19917,0.0,84.01081,0,1156,0.5488,17.16105,0.882,43690,0.0,1012.734,0.0,0.451,1010.933,0.0,37.0081921979,16.13,46.46746,0.392,0.373559759763,1.80078
2022-07-02T02:27:11Z,13.19076,15.14903,0.0,87.02572,0,1156,0.7644,17.01194,1.1956,43690,0.0,1012.734,0.0,1.196,1010.933,0.0,106.412112133,15.42,172.6415,0.588,0.624764485799,1.80078
2022-07-02T02:42:11Z,13.2018,15.01353,0.0,89.05823,0,1156,0.0392,16.6866,0.8624,43690,0.0,1012.734,0.0,0.039,1010.933,0.0,110.566926242,15.08,78.47999,0.0392,0.123630768639,1.80078
2022-07-02T02:57:12Z,13.20731,14.91191,0.0,89.36311,0,1156,0.7056,16.36353,0.9995999,43690,0.0,1012.734,0.0,1.0,1010.933,0.0,60.6718538925,14.91,51.13345,0.6664,0.570719510651,1.80078
2022-07-02T03:12:12Z,13.21283,14.74253,0.0,88.1436,0,1156,1.666,16.06757,1.7444,43690,0.0,1012.654,0.0,1.431,1010.854,0.0,69.3742859207,14.91,74.63175,0.9799999,1.01722838402,1.80078
2022-07-02T03:27:14Z,13.21835,14.77641,0.0,87.83872,0,1156,1.0584,15.79872,1.9208,43690,0.0,1012.654,0.0,1.137,1010.854,0.0,65.8539487278,14.88,64.57823,1.2348,1.25057277278,1.80078
2022-07-02T03:42:13Z,13.22389,15.72619,0.0,86.62119,0,1156,1.8424,15.62701,2.6656,43690,0.0,1012.654,0.0,2.293,1010.854,0.0,344.794367561,15.86,228.0132,1.5288,1.56243313254,1.80078
2022-07-02T03:57:12Z,13.21291,15.49102,0.0,85.98059,0,1156,3.1752,15.65187,4.2924,43690,0.0,1012.654,0.0,4.292,1010.854,0.0,36.2407996675,15.56,51.47317,1.8228,1.88507928462,1.80078
2022-07-02T04:12:13Z,13.20194,16.53956,0.0,86.7911,0,1156,1.8424,15.94557,4.6452,43690,0.0,1013.002,0.0,3.352,1011.201,0.0,48.9915007192,16.51,57.86954,3.0968,3.09877159763,1.80078
2022-07-02T04:27:13Z,13.19629,16.63962,0.0,86.31445,0,1156,1.5484,16.41324,2.8224,43690,0.0,1013.002,0.0,2.195,1011.201,0.0,101.394588234,16.94,134.1112,1.4504,1.48728047041,1.80078
2022-07-02T04:42:13Z,13.19077,15.01357,0.0,88.58406,0,1156,1.7444,16.6369,2.7048,43690,0.0,1013.002,0.0,1.568,1011.201,0.0,158.482518465,15.22,189.8385,1.2152,1.26240235799,1.80078
2022-07-02T04:57:13Z,13.20181,14.60707,0.0,90.5827,0,1156,2.9204,16.33868,2.8028,43690,0.0,1013.002,0.0,2.489,1011.201,0.0,153.654431416,14.64,123.288,0.5684,0.697017749704,1.80078
2022-07-02T05:12:13Z,13.21284,15.04745,0.0,90.75207,0,1156,1.862,16.02012,3.0772,43690,0.0,1011.842,0.0,1.372,1010.041,0.0,128.501100875,15.12,124.0817,0.784,0.904615378107,1.80078
2022-07-02T05:27:14Z,13.21864,14.64141,0.0,91.56586,0,1156,1.0584,15.74901,2.9008,43690,0.0,1011.842,0.0,1.921,1010.041,0.0,130.185738872,14.78,142.2899,1.764,1.67610061166,1.80078
2022-07-02T05:42:14Z,13.21886,14.57431,0.0,92.54934,0,1156,0.0392,15.48242,1.274,43690,0.0,1011.842,0.0,0.49,1010.041,0.0,180.437154014,14.61,56.90701,0.5096,0.496574672152,1.80078
2022-07-02T05:57:14Z,13.22435,14.6427,0.0,92.7537,0,1156,1.372,15.33557,1.4896,43690,0.0,1011.842,0.0,0.96,1010.041,0.0,64.1218602641,14.68,212.8386,0.294,0.321022483432,1.80078
2022-07-02T06:12:15Z,13.21912,15.14922,0.0,93.08971,0,1156,2.3912,15.43272,4.5472,43690,0.0,1011.781,0.0,4.116,1009.98,0.0,194.372189576,15.28,180.6753,2.5088,2.56725207041,1.80078
2022-07-02T06:27:47Z,13.21366,14.77823,0.0,93.228,0,1156,1.8228,15.62701,3.9592,43690,0.0,1011.781,0.0,2.568,1009.98,0.0,172.154270734,14.91,200.4036,2.7538,2.7489,1.80078
2022-07-02T06:42:43Z,13.21333,14.87904,0.0,94.34452,0,1156,2.1364,15.70157,2.4108,43690,0.0,1011.781,0.0,2.411,1009.98,0.0,66.4503092538,14.98,84.73492,1.47,1.44603056752,1.80078
2022-07-02T06:57:45Z,13.21325,15.04939,0.0,95.09148,0,1156,0.8231999,15.70157,2.9204,43690,0.0,1011.781,0.0,0.98,1009.98,0.0,93.3691698324,15.05,126.2508,1.2348,1.30496567219,1.80078
2022-07-02T07:12:46Z,13.21302,15.15097,0.0,95.59954,0,1156,0.0392,15.70157,1.8032,43690,0.0,1011.038,0.0,1.803,1009.237,0.0,76.653902636,15.22,106.6961,0.5096,0.546712419527,1.80078
2022-07-02T07:27:46Z,13.21905,14.74496,0.0,95.73593,0,1156,1.5092,15.65187,2.548,43690,0.0,1011.038,0.0,2.509,1009.237,0.0,84.5218767815,14.91,84.23202,1.0976,1.10548638639,1.80078